{"data":{"norad_id":51716,"intl_designator":"2022-016C","name":"STARLINK-3543","alt_names":[],"object_type":"PAYLOAD","status":"ACTIVE","operator":null,"country":"US","launch_date":"2022-02-21","launch_site_code":"AFETR","launch_vehicle":null,"mission":null,"orbit_class":"UNKNOWN","rcs_meters":null,"size_class":null,"mass_kg":null,"dimensions":null,"purposes":["comms"],"wikipedia_slug":null,"has_3d_model":false,"image_url":null,"decayed_at":null,"tle_current":{"epoch":"2026-05-24T20:28:23.246976Z","epoch_age_seconds":81661,"freshness":"FRESH","line1":"1 51716U 22016C   26144.85304684  .00000159  00000+0  28092-4 0  9995","line2":"2 51716  53.2147 347.2101 0001286  89.8410 270.2729 15.08835893234928","mean_motion":15.08835893,"eccentricity":0.0001286,"inclination_deg":53.2147,"raan_deg":347.2101,"arg_perigee_deg":89.841,"mean_anomaly_deg":270.2729,"bstar":2.8092e-5,"rev_number":23492,"period_min":95.437814455545,"perigee_km":538.86630141615,"apogee_km":540.64558348095,"semimajor_km":6917.8929424485,"source":"CELESTRAK","updated_at":"2026-05-25T13:38:16.920046Z"}}}